INFORMAÇÕES METEOROLÓGICAS
METAR FOR SBJU
ADDS - METARS form results

(1056 UTC 18 July 2019)
Data provider http://aviationweather.gov/metar/data/
 
METAR text: SBJU 181000Z 00000KT 9999 SCT020 21/16 Q1022
Conditions at: SBJU (JUAZEIRO D NORTE, BR) observed 1000 UTC 18 July 2019
Temperature: 21.0°C (70°F)
Dewpoint: 16.0°C (61°F) [RH = 73%]
Pressure (altimeter): 30.18 inches Hg (1022.0 mb)
Winds: calm
Visibility: 6 or more miles (10+ km)
Ceiling: at least 12,000 feet AGL
Clouds: scattered clouds at 2000 feet AGL
Weather: no significant weather observed at this time

 MAPA DO AEROPORTO

 INFORMAÇÕES DA PISTA
Pista 13 Tamanho da pista 5906 ft Largura da pista 148 ft
Elevação da pista 0 ft Ranhura da pista 0 ft Proa da pista 0
Pista 31 Tamanho da pista 5906 ft Largura da pista 148 ft
Elevação da pista 0 ft Ranhura da pista 0 ft Proa da pista 0

 FREQUÊNCIAS DO AEROPORTO
Tipo AFIS Nome JUAZEIRO R Frequência 131.75 MHZ

 AUXÍLIOS DE NAVEGAÇÃO PRÓXIMOS AO AEROPORTO
Tipo NDB Nome Juazeiro Frequência 205 KHZ





Powered by Virtual Airlines Manager [v2.6.2]